Home > Weather > Long Beach > Past weeks

Flag for USA Past Weather in Long Beach, California, USA — Yesterday and Last 2 Weeks

Now
68 °F

Clear.


Feels Like: 68 °F
Forecast: 69 / 82 °F
Wind: 5 mph from Northwest

Location: Long Beach Airport

Current Time: Jun 29, 2016 at 12:22:00 AM

Latest Report: Jun 28, 2016 at 11:53 PM


Visibility: 8 mi

Pressure: 29.90 "Hg

Humidity: 84%

Dew Point: 63 °F

Location of Long BeachLocation

Past Weather in Long Beach — Graph

°F

Long Beach Temperature Yesterday

Maximum temperature yesterday: 86 °F (at 2:53 PM)
Minimum temperature yesterday: 68 °F (at 1:53 AM)
Average temperature yesterday: 74 °F

High & Low Weather Summary for the Past Weeks

 TemperatureHumidityPressure
High99 °F (Jun 20, 3:53 PM)94% (Jun 22, 3:53 AM)30.04 "Hg (Jun 22, 3:53 AM)
Low58 °F (Jun 16, 3:53 AM)12% (Jun 20, 3:53 PM)29.80 "Hg (Jun 20, 5:53 PM)
Average72 °F64%29.93 "Hg
* Reported Jun 13 10:53 PM — Jun 28 10:53 PM, Long Beach, Weather by CustomWeather, © 2016

Note: Actual official high and low records may vary slightly from our data, if they occured in-between our weather recording intervals... More about our weather records

Advertising

Long Beach Weather History for the Previous 24 Hours

Scroll right to see more
 ConditionsComfort  
Time TempWeatherWind HumidityBarometerVisibility
10:53 PM
Tue, Jun 28
68 °FClear.5 mph84%29.91 "Hg9 mi
9:53 PM69 °FClear.7 mph81%29.91 "Hg9 mi
8:53 PM70 °FSunny.7 mph79%29.89 "Hg10 mi
7:53 PM71 °FSunny.7 mph73%29.88 "Hg10 mi
6:53 PM75 °FSunny.12 mph64%29.88 "Hg10 mi
5:53 PM79 °FSunny.13 mph54%29.88 "Hg10 mi
4:53 PM83 °FSunny.10 mph51%29.88 "Hg9 mi
3:53 PM85 °FSunny.12 mph48%29.89 "Hg10 mi
2:53 PM86 °FSunny.9 mph45%29.90 "Hg10 mi
1:53 PM85 °FSunny.7 mph50%29.93 "Hg9 mi
12:53 PM80 °FSunny.6 mph58%29.94 "Hg8 mi
11:53 AM77 °FSunny.10 mph64%29.96 "Hg8 mi
10:53 AM76 °FSunny.8 mph69%29.96 "Hg6 mi
9:53 AM75 °FSunny.8 mph71%29.96 "Hg4 mi
8:53 AM75 °FSunny.5 mph71%29.96 "Hg4 mi
7:53 AM72 °FSunny.3 mph78%29.95 "Hg3 mi
6:53 AM69 °FFog.No wind87%29.94 "Hg4 mi
5:53 AM68 °FFog.No wind90%29.94 "Hg5 mi
4:53 AM68 °FFog.No wind90%29.92 "Hg5 mi
3:53 AM68 °FFog.No wind90%29.92 "Hg5 mi
2:53 AM68 °FFog.5 mph90%29.92 "Hg5 mi
1:53 AM68 °FClear.5 mph90%29.92 "Hg7 mi
12:53 AM70 °FClear.5 mph84%29.92 "Hg7 mi
Weather by CustomWeather, © 2016

See weather overviewHow to use our weather pages